NOAA 16 DEB, 41159

Orbit data source: Space-Track

NOAA 16 DEB, 41159 is space debris in SSO originally from a launch on Thu, 21 Sep 2000 UTC launched from the Air Force Western Test Range (AFWTR). Debris objects in space refer to the collection of defunct objects orbiting the Earth. Examples of debris include non-operational satellites, rocket bodies, and fragments generated from explosions, collisions, or faulty payload assembly.

Loading next visibility...
Identifier
41159, 2000-055CS
Orbit
SSO
Country
Flag of USUS
Related business
Manufacturer
Unknown
Mission
Spacecraft
Bus & Motor
Unknown
Mass
Unknown
Launch date (UTC)
2000-09-21 (25 years ago)
Launch vehicle
Unknown
Launch site
Air Force Western Test Range (AFWTR)
Object type
Payload
Rocket body
Debris
Shape & HBR
Unknown shape, 0.1 m
Radar Cross Section
Small (<0.1 m²)

Expand to show TLE details & history
Last TLE update: 2 days ago

TLE from 2 days ago
0 NOAA 16 DEB
1 41159U 00055CS  25347.42268233  .00006125  00000-0  22988-2 0  9996
2 41159  98.6195  60.1850 0018220  10.3813 349.7743 14.31872687520213
Epoch: 2025-12-13T10:08Z
TLE epoch observation values (Epoch: 2025-12-13T10:08:39.753Z)
Latitude
-0.00002°
Longitude
-174.33081°
Altitude
775.565 km
Speed
7.473 km/s
True Right ascension
04h 00m 44s
True Declination
0° 00' 00"
Sunlit
Object was in full shadow at epoch
Visualization orbit readout
Latitude
Unknown
Longitude
Unknown
Altitude
Unknown
Speed
Unknown
Apparent Right ascension
Unknown
Apparent Declination
Unknown
Sunlit
N/A
Visualization observer readout
Local Sidereal Time
16:52:21
Azimuth
Unknown
Elevation
Unknown
Doppler factor
Unknown
Orbital elements
Apogee altitude
795.663 km
Perigee altitude
769.57 km
Semi-major axis
7,160.753 km
Eccentricity
0.00182
Inclination
98.6195°
RAAN
60.185°
Arg. of periapsis
10.3813°
True anomaly
349.73715°
Mean anomaly
349.7743°
Eccentric anomaly
349.75573°
Mean motion
3.58183 °/min
Orbital period
100.51 mins
BSTAR
0.0022988
Loading maneuver chart data...
Computing Atmospheric mass density...
Loading historical data...
Loading historical data...
Loading historical data...
Loading historical data...
Loading historical data...
Loading historical data...
Loading historical data...

Documentation

Showing up to 5 results
|